{"data":{"norad_id":69659,"epoch":"2026-09-19T21:05:51.081216Z","epoch_age_seconds":75319,"freshness":"FRESH","line1":"1 69659U 26143L   26262.87906344  .00011670  00000+0  36318-3 0  9998","line2":"2 69659  97.2861 306.0218 0000662  86.4878 273.6440 15.33450691 15059","mean_motion":15.33450691,"eccentricity":6.62e-5,"inclination_deg":97.2861,"raan_deg":306.0218,"arg_perigee_deg":86.4878,"mean_anomaly_deg":273.644,"bstar":0.00036318,"rev_number":1505,"period_min":93.905856148589,"perigee_km":465.07319161183,"apogee_km":465.97929262509,"semimajor_km":6843.6632421185,"source":"CELESTRAK","updated_at":"2026-09-20T09:00:44.248877Z"}}